sat.trackr.live / text

‹ back to catalog

STARLINK-5649

NORAD 55354 · 2023-013Z

PAYLOAD ACTIVE UNKNOWN

§ Identity

Operator
Country
US
Launch date
2023-01-26
Launch site
AFETR
Launch vehicle
Mass (kg)
RCS (m²)

Purposes: comms

External: N2YO · Heavens-Above · Gunter

§ Orbital elements

Epoch: 2026-09-20T12:33:32.694048Z

Period
94.27 min
Inclination
43.0029°
Eccentricity
0.0001989
Mean motion
15.27595682 rev/d
Perigee alt
481.6 km
Apogee alt
484.4 km
Semi-major
6,861.1 km
B*
1.0507e-4
RAAN
282.8378°
Arg perigee
285.5641°
Mean anomaly
74.4991°
Rev number
20,147

§ Raw data

STARLINK-56491 55354U 23013Z   26263.52329507  .00002631  00000+0  10507-3 0  99902 55354  43.0029 282.8378 0001989 285.5641  74.4991 15.27595682201476

JSON: /api/v1/satellites/55354 · /tle

For live sub-satellite position, see the globe view (requires WebGL).

§ Visibility from observer

Set your observer location to see the next 7 days of passes ≥ 10°. The values pass through the URL so the page stays shareable.

No JS? Fill the form by hand. The geolocation button needs JavaScript.